{"data":{"norad_id":67093,"intl_designator":"2025-298U","name":"STARLINK-35784","alt_names":[],"object_type":"PAYLOAD","status":"ACTIVE","operator":null,"country":"US","launch_date":"2025-12-14","launch_site_code":"AFWTR","launch_vehicle":null,"mission":null,"orbit_class":"UNKNOWN","rcs_meters":null,"size_class":null,"mass_kg":null,"dimensions":null,"purposes":["comms"],"wikipedia_slug":null,"has_3d_model":false,"image_url":null,"decayed_at":null,"tle_current":{"epoch":"2026-05-25T03:43:15.742848Z","epoch_age_seconds":55610,"freshness":"FRESH","line1":"1 67093U 25298U   26145.15504332  .00002244  00000+0  19577-3 0  9995","line2":"2 67093  70.0008 181.5626 0003818 267.1821  92.8901 14.98335106 24676","mean_motion":14.98335106,"eccentricity":0.0003818,"inclination_deg":70.0008,"raan_deg":181.5626,"arg_perigee_deg":267.1821,"mean_anomaly_deg":92.8901,"bstar":0.00019577,"rev_number":2467,"period_min":96.106671613953,"perigee_km":569.38652348825,"apogee_km":574.69367872265,"semimajor_km":6950.1771011055,"source":"CELESTRAK","updated_at":"2026-05-25T13:38:21.470278Z"}}}